DW9982 Weather Reports


time (UTC)temp
C
wind
direction
speed
KPH
gust
KPH
rain 1hr
cm
rain 24hr
cm
rain mn
cm
humidity
%
barometer
mb
20260906175101 35 126 0.0 1.6 0.00 0.00 0.00 52 1013.8
20260906174610 35 125 0.0 1.6 0.00 0.00 0.00 51 1013.9
20260906174059 35 65 0.0 0.0 0.00 0.00 0.00 50 1013.9
20260906173558 36 328 0.0 0.0 0.00 0.00 0.00 51 1013.9
20260906173104 35 96 0.0 0.0 0.00 0.00 0.00 52 1014.1
20260906172559 35 113 0.0 0.0 0.00 0.00 0.00 51 1014.1
20260906172059 35 293 0.0 8.0 0.00 0.00 0.00 52 1014.2
20260906171556 35 98 0.0 8.0 0.00 0.00 0.00 52 1014.3
20260906171055 35 137 0.0 1.6 0.00 0.00 0.00 52 1014.4
20260906170555 35 98 0.0 0.0 0.00 0.00 0.00 53 1014.4
20260906170054 35 331 0.0 0.0 0.00 0.00 0.00 55 1014.5
20260906165553 35 130 0.0 0.0 0.00 0.00 0.00 56 1014.6
20260906165053 34 111 0.0 0.0 0.00 0.00 0.00 56 1014.7
20260906164556 34 219 0.0 0.0 0.00 0.00 0.00 57 1014.7
20260906164052 34 95 0.0 0.0 0.00 0.00 0.00 57 1014.7
20260906163653 34 104 0.0 0.0 0.00 0.00 0.00 58 1014.7
20260906163058 35 120 0.0 0.0 0.00 0.00 0.00 57 1014.8
20260906162550 34 93 0.0 0.0 0.00 0.00 0.00 59 1014.8
20260906162052 33 105 0.0 0.0 0.00 0.00 0.00 60 1014.7
20260906161548 33 65 0.0 0.0 0.00 0.00 0.00 59 1014.7
20260906161046 33 134 0.0 0.0 0.00 0.00 0.00 59 1014.7
20260906160546 33 126 0.0 0.0 0.00 0.00 0.00 59 1014.6
20260906160045 33 87 0.0 0.0 0.00 0.00 0.00 62 1014.6
20260906155544 32 159 0.0 0.0 0.00 0.00 0.00 62 1014.6
20260906155047 32 103 0.0 0.0 0.00 0.00 0.00 64 1014.5
20260906154542 32 75 0.0 0.0 0.00 0.00 0.00 64 1014.6
20260906154041 32 155 0.0 1.6 0.00 0.00 0.00 64 1014.6
20260906153541 32 139 0.0 1.6 0.00 0.00 0.00 65 1014.6
20260906153040 32 120 0.0 0.0 0.00 0.00 0.00 65 1014.6
20260906152539 31 103 0.0 0.0 0.00 0.00 0.00 65 1014.6
20260906152044 32 128 0.0 0.0 0.00 0.00 0.00 65 1014.6
20260906151538 31 162 0.0 0.0 0.00 0.00 0.00 67 1014.6
20260906151038 31 95 0.0 0.0 0.00 0.00 0.00 66 1014.7
20260906150539 31 95 0.0 0.0 0.00 0.00 0.00 67 1014.6
20260906150037 31 113 0.0 0.0 0.00 0.00 0.00 65 1014.6
20260906145536 31 113 0.0 0.0 0.00 0.00 0.00 66 1014.7
20260906145036 31 103 0.0 0.0 0.00 0.00 0.00 68 1014.7
20260906144533 31 118 0.0 0.0 0.00 0.00 0.00 68 1014.7
20260906144034 30 106 0.0 0.0 0.00 0.00 0.00 70 1014.7
20260906143532 30 87 0.0 0.0 0.00 0.00 0.00 70 1014.7
20260906143031 30 120 0.0 0.0 0.00 0.00 0.00 70 1014.6
20260906142531 30 93 0.0 0.0 0.00 0.00 0.00 70 1014.6
20260906142031 30 92 0.0 1.6 0.00 0.00 0.00 71 1014.6
20260906141530 30 109 0.0 1.6 0.00 0.00 0.00 69 1014.7
20260906141032 30 74 0.0 0.0 0.00 0.00 0.00 71 1014.8
20260906140530 30 86 0.0 0.0 0.00 0.00 0.00 68 1014.7
20260906140026 30 99 0.0 0.0 0.00 0.00 0.00 70 1014.7
20260906135525 30 99 0.0 0.0 0.00 0.00 0.00 72 1014.6
20260906135024 29 73 0.0 0.0 0.00 0.00 0.00 73 1014.6
20260906134523 28 101 0.0 0.0 0.00 0.00 0.00 73 1014.6
20260906134023 28 68 0.0 0.0 0.00 0.00 0.00 73 1014.6
20260906133527 28 85 0.0 0.0 0.00 0.00 0.00 73 1014.5
20260906133027 28 89 0.0 0.0 0.00 0.00 0.00 73 1014.5
20260906132521 28 98 0.0 0.0 0.00 0.00 0.00 73 1014.4
20260906132019 28 84 0.0 0.0 0.00 0.00 0.00 75 1014.4
20260906131518 28 84 0.0 0.0 0.00 0.00 0.00 76 1014.5
20260906131016 27 84 0.0 0.0 0.00 0.00 0.00 76 1014.3
20260906130516 27 83 0.0 0.0 0.00 0.00 0.00 77 1014.3
20260906130014 27 84 0.0 0.0 0.00 0.00 0.00 79 1014.2
20260906125513 26 84 0.0 0.0 0.00 0.00 0.00 80 1014.3
20260906125011 26 84 0.0 0.0 0.00 0.00 0.00 82 1014.1
20260906124511 25 84 0.0 0.0 0.00 0.00 0.00 84 1014.1
20260906124011 25 84 0.0 0.0 0.00 0.00 0.00 83 1014.0
20260906123510 25 84 0.0 0.0 0.00 0.00 0.00 84 1014.0
20260906123014 25 84 0.0 0.0 0.00 0.00 0.00 84 1013.9
20260906122510 25 84 0.0 0.0 0.00 0.00 0.00 84 1013.8
20260906122009 25 86 0.0 0.0 0.00 0.00 0.00 84 1013.7
20260906121508 25 86 0.0 0.0 0.00 0.00 0.00 84 1013.7
20260906121008 25 86 0.0 0.0 0.00 0.00 0.00 83 1013.7
20260906120508 24 113 0.0 0.0 0.00 0.00 0.00 84 1013.7
20260906120007 24 98 0.0 0.0 0.00 0.00 0.00 85 1013.6
20260906115507 24 98 0.0 0.0 0.00 0.00 0.00 85 1013.6
20260906115006 24 98 0.0 0.0 0.00 0.00 0.00 85 1013.6
20260906114520 24 98 0.0 0.0 0.00 0.00 0.00 85 1013.6
20260906114006 24 113 0.0 0.0 0.00 0.00 0.00 87 1013.5
20260906113508 23 113 0.0 0.0 0.00 0.00 0.00 89 1013.5
20260906113006 23 101 0.0 0.0 0.00 0.00 0.00 91 1013.5
20260906112505 22 96 0.0 0.0 0.00 0.00 0.00 93 1013.5
20260906112005 23 96 0.0 0.0 0.00 0.00 0.00 93 1013.5
20260906111508 23 96 0.0 0.0 0.00 0.00 0.00 93 1013.5
20260906111004 23 96 0.0 0.0 0.00 0.00 0.00 93 1013.4
20260906110507 23 96 0.0 0.0 0.00 0.00 0.00 94 1013.4
20260906110007 23 96 0.0 0.0 0.00 0.00 0.00 94 1013.4
20260906105506 23 96 0.0 0.0 0.00 0.00 0.00 94 1013.5
20260906105003 23 96 0.0 0.0 0.00 0.00 0.00 94 1013.5
20260906104506 23 96 0.0 0.0 0.00 0.00 0.00 94 1013.5
20260906104003 23 96 0.0 0.0 0.00 0.00 0.00 94 1013.5
20260906103502 23 96 0.0 0.0 0.00 0.00 0.00 94 1013.5
20260906103002 23 96 0.0 0.0 0.00 0.00 0.00 94 1013.4
20260906102501 23 96 0.0 0.0 0.00 0.00 0.00 93 1013.4
20260906102002 23 96 0.0 0.0 0.00 0.00 0.00 93 1013.3
20260906101604 23 96 0.0 0.0 0.00 0.00 0.00 93 1013.3
20260906101059 23 96 0.0 0.0 0.00 0.00 0.00 93 1013.3
20260906100559 23 96 0.0 0.0 0.00 0.00 0.00 93 1013.2
20260906100058 23 96 0.0 0.0 0.00 0.00 0.00 93 1013.1
20260906095558 23 96 0.0 0.0 0.00 0.00 0.00 93 1013.1
20260906095058 23 96 0.0 0.0 0.00 0.00 0.00 93 1013.1
20260906094558 23 96 0.0 0.0 0.00 0.00 0.00 92 1013.1
20260906094057 23 96 0.0 0.0 0.00 0.00 0.00 92 1013.0
20260906093557 23 96 0.0 0.0 0.00 0.00 0.00 92 1013.0
20260906093057 23 96 0.0 0.0 0.00 0.00 0.00 92 1012.9
20260906092556 23 96 0.0 0.0 0.00 0.00 0.00 91 1012.9
20260906092056 23 96 0.0 0.0 0.00 0.00 0.00 92 1013.0
20260906091556 23 96 0.0 0.0 0.00 0.00 0.00 92 1012.9
20260906091054 23 96 0.0 0.0 0.00 0.00 0.00 91 1012.9
20260906090553 23 96 0.0 0.0 0.00 0.00 0.00 91 1012.8
20260906090053 23 96 0.0 0.0 0.00 0.00 0.00 91 1012.8
20260906085553 23 96 0.0 0.0 0.00 0.00 0.00 91 1012.8
20260906085053 23 96 0.0 0.0 0.00 0.00 0.00 91 1012.7
20260906084553 23 96 0.0 0.0 0.00 0.00 0.00 91 1012.7
20260906084052 23 96 0.0 0.0 0.00 0.00 0.00 91 1012.6
20260906083553 23 96 0.0 0.0 0.00 0.00 0.00 91 1012.7
20260906083054 23 96 0.0 0.0 0.00 0.00 0.00 91 1012.7
20260906082551 23 96 0.0 0.0 0.00 0.00 0.00 91 1012.7
20260906082051 23 96 0.0 0.0 0.00 0.00 0.00 91 1012.7
20260906081555 23 96 0.0 0.0 0.00 0.00 0.00 91 1012.8
20260906081050 23 96 0.0 0.0 0.00 0.00 0.00 90 1012.8
20260906080550 24 96 0.0 0.0 0.00 0.00 0.00 90 1012.7
20260906080051 24 96 0.0 0.0 0.00 0.00 0.00 90 1012.7
20260906075548 24 96 0.0 0.0 0.00 0.00 0.00 90 1012.5
20260906075048 24 96 0.0 0.0 0.00 0.00 0.00 90 1012.6
20260906074550 24 96 0.0 0.0 0.00 0.00 0.00 89 1012.7
20260906074049 24 96 0.0 0.0 0.00 0.00 0.00 89 1012.6
20260906073547 24 96 0.0 0.0 0.00 0.00 0.00 89 1012.7
20260906073047 24 96 0.0 0.0 0.00 0.00 0.00 89 1012.7
20260906072549 24 96 0.0 0.0 0.00 0.00 0.00 89 1012.6
20260906072045 24 96 0.0 0.0 0.00 0.00 0.00 89 1012.6
20260906071546 24 96 0.0 0.0 0.00 0.00 0.00 88 1012.6
20260906071044 24 96 0.0 0.0 0.00 0.00 0.00 87 1012.6
20260906070543 24 96 0.0 0.0 0.00 0.00 0.00 85 1012.6
20260906070043 25 96 0.0 0.0 0.00 0.00 0.00 85 1012.6
20260906065545 25 96 0.0 0.0 0.00 0.00 0.00 85 1012.6
20260906065041 25 96 0.0 0.0 0.00 0.00 0.00 84 1012.7
20260906064540 25 96 0.0 0.0 0.00 0.00 0.00 82 1012.8
20260906064039 25 96 0.0 0.0 0.00 0.00 0.00 82 1012.9
20260906063542 25 96 0.0 0.0 0.00 0.00 0.00 82 1012.9
20260906063038 25 96 0.0 0.0 0.00 0.00 0.00 81 1012.8
20260906062538 25 96 0.0 0.0 0.00 0.00 0.00 81 1012.8
20260906062039 25 96 0.0 0.0 0.00 0.00 0.00 81 1012.9
20260906061536 25 96 0.0 0.0 0.00 0.00 0.00 80 1012.8
20260906061035 25 96 0.0 0.0 0.00 0.00 0.00 81 1012.9
20260906060535 25 96 0.0 0.0 0.00 0.00 0.00 81 1013.0
20260906060046 25 96 0.0 0.0 0.00 0.00 0.00 81 1012.9
20260906055534 25 96 0.0 0.0 0.00 0.00 0.00 80 1012.9
20260906055034 25 96 0.0 0.0 0.00 0.00 0.00 80 1013.1
20260906054533 25 96 0.0 0.0 0.00 0.00 0.00 79 1013.1
20260906054032 26 96 0.0 0.0 0.00 0.00 0.00 78 1013.1
20260906053534 26 96 0.0 0.0 0.00 0.00 0.00 77 1013.2
20260906053032 26 96 0.0 0.0 0.00 0.00 0.00 77 1013.2
20260906052536 26 96 0.0 0.0 0.00 0.00 0.00 76 1013.2
20260906052028 26 96 0.0 0.0 0.00 0.00 0.00 76 1013.1
20260906051527 26 96 0.0 0.0 0.00 0.00 0.00 77 1013.0
20260906051027 26 96 0.0 0.0 0.00 0.00 0.00 76 1013.1
20260906050526 26 96 0.0 0.0 0.00 0.00 0.00 77 1013.0
20260906050025 26 96 0.0 0.0 0.00 0.00 0.00 76 1013.0
20260906045528 26 96 0.0 0.0 0.00 0.00 0.00 75 1013.0
20260906045125 26 96 0.0 0.0 0.00 0.00 0.00 74 1013.0
20260906044525 27 96 0.0 0.0 0.00 0.00 0.00 75 1013.1
20260906044024 27 96 0.0 0.0 0.00 0.00 0.00 74 1013.1
20260906043524 27 96 0.0 0.0 0.00 0.00 0.00 73 1013.1
20260906043027 27 96 0.0 0.0 0.00 0.00 0.00 72 1013.1
20260906042525 27 96 0.0 0.0 0.00 0.00 0.00 71 1013.0
20260906042024 27 96 0.0 0.0 0.00 0.00 0.00 70 1012.9
20260906041529 28 96 0.0 0.0 0.00 0.00 0.00 69 1012.9
20260906041025 28 96 0.0 0.0 0.00 0.00 0.00 69 1012.9
20260906040523 28 96 0.0 0.0 0.00 0.00 0.00 69 1012.9
20260906040033 28 96 0.0 0.0 0.00 0.00 0.00 70 1012.8
20260906035533 28 118 0.0 0.0 0.00 0.00 0.00 71 1012.8
20260906035023 27 119 0.0 0.0 0.00 0.00 0.00 71 1012.8
20260906034529 28 118 0.0 0.0 0.00 0.00 0.00 71 1012.7
20260906034022 28 118 0.0 0.0 0.00 0.00 0.00 70 1012.6
20260906033522 28 119 0.0 0.0 0.00 0.00 0.00 70 1012.6
20260906033023 28 119 0.0 0.0 0.00 0.00 0.00 70 1012.6
20260906032523 28 119 0.0 0.0 0.00 0.00 0.00 71 1012.6
20260906032026 28 119 0.0 0.0 0.00 0.00 0.00 70 1012.5
20260906031535 28 119 0.0 0.0 0.00 0.00 0.00 70 1012.5
20260906031023 28 118 0.0 0.0 0.00 0.00 0.00 70 1012.5
20260906030522 28 119 0.0 0.0 0.00 0.00 0.00 69 1012.4
20260906030022 28 119 0.0 0.0 0.00 0.00 0.00 70 1012.3
20260906025526 28 119 0.0 0.0 0.00 0.00 0.00 69 1012.3
20260906025021 29 119 0.0 0.0 0.00 0.00 0.00 68 1012.2
20260906024520 29 119 0.0 0.0 0.00 0.00 0.00 68 1012.1
20260906024023 30 118 0.0 0.0 0.00 0.00 0.00 68 1012.0
20260906023521 30 86 0.0 0.0 0.00 0.00 0.00 68 1012.0
20260906023020 30 84 0.0 0.0 0.00 0.00 0.00 67 1011.9
20260906022520 30 84 0.0 0.0 0.00 0.00 0.00 67 1011.9
20260906022020 30 84 0.0 0.0 0.00 0.00 0.00 67 1011.8
20260906021522 30 84 0.0 0.0 0.00 0.00 0.00 67 1011.8
20260906021024 30 84 0.0 0.0 0.00 0.00 0.00 66 1011.7
20260906020520 30 83 0.0 0.0 0.00 0.00 0.00 65 1011.6
20260906020019 30 84 0.0 0.0 0.00 0.00 0.00 64 1011.6
20260906015519 30 84 0.0 0.0 0.00 0.00 0.00 64 1011.5
20260906015020 31 84 0.0 0.0 0.00 0.00 0.00 63 1011.4
20260906014524 31 84 0.0 0.0 0.00 0.00 0.00 63 1011.4
20260906014021 31 84 0.0 0.0 0.00 0.00 0.00 63 1011.4
20260906013519 31 83 0.0 0.0 0.00 0.00 0.00 63 1011.3
20260906013019 31 83 0.0 0.0 0.00 0.00 0.00 62 1011.2
20260906012520 31 84 0.0 0.0 0.00 0.00 0.00 61 1011.2
20260906012022 31 84 0.0 0.0 0.00 0.00 0.00 61 1011.2
20260906011519 31 84 0.0 0.0 0.00 0.00 0.00 60 1011.2
20260906011017 31 65 0.0 0.0 0.00 0.00 0.00 60 1011.2
20260906010517 31 67 0.0 0.0 0.00 0.00 0.00 60 1011.2
20260906010017 31 82 0.0 0.0 0.00 0.00 0.00 60 1011.1
20260906005517 32 82 0.0 0.0 0.00 0.00 0.00 59 1011.1
20260906005017 32 82 0.0 0.0 0.00 0.00 0.00 58 1011.0
20260906004517 32 82 0.0 0.0 0.00 0.00 0.00 57 1011.1
20260906004016 32 82 0.0 0.0 0.00 0.00 0.00 57 1011.0
20260906003516 32 82 0.0 0.0 0.00 0.00 0.00 56 1011.0
20260906003016 33 71 0.0 0.0 0.00 0.00 0.00 56 1011.1
20260906002516 33 70 0.0 0.0 0.00 0.00 0.00 56 1011.1
20260906002016 33 71 0.0 0.0 0.00 0.00 0.00 54 1011.0
20260906001517 33 71 0.0 0.0 0.00 0.00 0.00 53 1011.2
20260906001020 34 71 0.0 0.0 0.00 0.00 0.00 53 1011.1
20260906000515 34 355 0.0 0.0 0.00 0.00 0.00 53 1011.0
20260906000116 34 355 0.0 0.0 0.00 0.00 0.00 52 1011.0
20260905235515 35 21 0.0 4.8 0.00 0.00 0.00 51 1011.0
20260905235019 35 101 0.0 1.6 0.00 0.00 0.00 51 1010.9
20260905234514 35 85 0.0 0.0 0.00 0.00 0.00 51 1010.9
20260905234015 35 66 0.0 0.0 0.00 0.00 0.00 51 1010.9
20260905233515 35 113 0.0 0.0 0.00 0.00 0.00 50 1010.9
20260905233017 35 112 0.0 0.0 0.00 0.00 0.00 50 1010.9
20260905232514 35 15 0.0 0.0 0.00 0.00 0.00 50 1010.9
20260905232014 35 78 0.0 0.0 0.00 0.00 0.00 49 1010.8
20260905231514 35 94 0.0 0.0 0.00 0.00 0.00 49 1010.8
20260905231014 35 101 0.0 0.0 0.00 0.00 0.00 49 1010.8
20260905230513 35 136 0.0 0.0 0.00 0.00 0.00 49 1010.8
20260905230013 36 73 0.0 0.0 0.00 0.00 0.00 49 1010.8
20260905225514 36 249 0.0 0.0 0.00 0.00 0.00 48 1010.8
20260905225013 36 73 0.0 0.0 0.00 0.00 0.00 48 1010.8
20260905224513 36 287 0.0 0.0 0.00 0.00 0.00 49 1010.8
20260905224014 36 86 0.0 6.4 0.00 0.00 0.00 48 1010.7
20260905223511 36 74 1.6 6.4 0.00 0.00 0.00 48 1010.8
20260905223011 36 53 0.0 4.8 0.00 0.00 0.00 49 1010.8
20260905222511 36 78 0.0 12.9 0.00 0.00 0.00 49 1010.9
20260905222010 36 58 0.0 8.0 0.00 0.00 0.00 48 1010.9
20260905221511 36 5 1.6 8.0 0.00 0.00 0.00 48 1011.0
20260905221011 36 91 0.0 1.6 0.00 0.00 0.00 47 1011.0
20260905220513 36 81 0.0 3.2 0.00 0.00 0.00 48 1011.0
20260905220012 36 102 0.0 4.8 0.00 0.00 0.00 47 1011.1
20260905215508 37 89 0.0 12.9 0.00 0.00 0.00 46 1011.2
20260905215007 37 96 0.0 12.9 0.00 0.00 0.00 46 1011.2
20260905214507 37 16 0.0 0.0 0.00 0.00 0.00 43 1011.2
20260905214007 37 136 0.0 0.0 0.00 0.00 0.00 40 1011.3
20260905213507 37 250 0.0 0.0 0.00 0.00 0.00 39 1011.4
20260905213009 37 150 0.0 0.0 0.00 0.00 0.00 39 1011.3
20260905212508 38 148 0.0 0.0 0.00 0.00 0.00 39 1011.3
20260905212006 38 176 0.0 0.0 0.00 0.00 0.00 39 1011.4
20260905211504 37 290 0.0 0.0 0.00 0.00 0.00 39 1011.5
20260905211006 37 143 0.0 0.0 0.00 0.00 0.00 40 1011.5
20260905210503 37 238 0.0 0.0 0.00 0.00 0.00 39 1011.6
20260905210002 37 139 0.0 0.0 0.00 0.00 0.00 39 1011.6
20260905205502 37 191 0.0 0.0 0.00 0.00 0.00 40 1011.7
20260905205002 37 125 0.0 0.0 0.00 0.00 0.00 41 1011.7
20260905204502 37 312 0.0 0.0 0.00 0.00 0.00 41 1011.7
20260905204002 37 127 0.0 0.0 0.00 0.00 0.00 40 1011.8
20260905203600 37 113 0.0 0.0 0.00 0.00 0.00 41 1011.9
20260905203102 37 291 0.0 0.0 0.00 0.00 0.00 42 1012.0
20260905202558 37 277 0.0 0.0 0.00 0.00 0.00 40 1012.1
20260905202058 37 253 0.0 0.0 0.00 0.00 0.00 41 1012.1
20260905201559 37 98 0.0 0.0 0.00 0.00 0.00 40 1012.2
20260905201101 37 120 0.0 0.0 0.00 0.00 0.00 40 1012.2
20260905200557 37 158 0.0 0.0 0.00 0.00 0.00 41 1012.3
20260905200127 37 108 0.0 14.5 0.00 0.00 0.00 41 1012.4
20260905195559 37 126 1.6 14.5 0.00 0.00 0.00 41 1012.4
20260905195056 38 139 0.0 0.0 0.00 0.00 0.00 40 1012.5
20260905194556 38 157 0.0 0.0 0.00 0.00 0.00 40 1012.5
20260905194059 38 147 0.0 0.0 0.00 0.00 0.00 41 1012.4
20260905193556 37 146 0.0 9.7 0.00 0.00 0.00 41 1012.6
20260905193055 38 163 0.0 14.5 0.00 0.00 0.00 40 1012.7
20260905192554 38 148 0.0 0.0 0.00 0.00 0.00 40 1012.7
20260905192052 37 141 0.0 0.0 0.00 0.00 0.00 41 1012.7
20260905191552 37 113 0.0 0.0 0.00 0.00 0.00 41 1012.7
20260905191050 37 105 0.0 0.0 0.00 0.00 0.00 43 1012.8
20260905190551 37 137 0.0 0.0 0.00 0.00 0.00 42 1012.8
20260905190053 37 253 0.0 0.0 0.00 0.00 0.00 43 1012.9
20260905185550 37 297 0.0 0.0 0.00 0.00 0.00 44 1013.0
20260905185047 36 336 0.0 0.0 0.00 0.00 0.00 44 1013.0
20260905184548 36 279 0.0 0.0 0.00 0.00 0.00 44 1013.1
20260905184052 36 219 0.0 9.7 0.00 0.00 0.00 46 1013.2
20260905183547 36 92 0.0 12.9 0.00 0.00 0.00 46 1013.3
20260905183047 36 256 0.0 9.7 0.00 0.00 0.00 47 1013.3
20260905182546 35 281 0.0 9.7 0.00 0.00 0.00 45 1013.4
20260905182050 36 270 0.0 3.2 0.00 0.00 0.00 46 1013.4
20260905181549 36 117 0.0 1.6 0.00 0.00 0.00 45 1013.5
20260905181046 36 155 0.0 8.0 0.00 0.00 0.00 44 1013.6
20260905180546 36 142 1.6 9.7 0.00 0.00 0.00 44 1013.7
20260905180108 36 116 0.0 11.3 0.00 0.00 0.00 45 1013.7
20260905175545 36 127 0.0 11.3 0.00 0.00 0.00 45 1013.7